{"data":{"norad_id":52852,"epoch":"2026-09-20T03:58:38.075808Z","epoch_age_seconds":97682,"freshness":"FRESH","line1":"1 52852U 22062Y   26263.16571847 -.00000073  00000+0  89714-5 0  9996","line2":"2 52852  53.1599 218.9302 0001286  88.8871 271.2278 15.34393727235449","mean_motion":15.34393727,"eccentricity":0.0001286,"inclination_deg":53.1599,"raan_deg":218.9302,"arg_perigee_deg":88.8871,"mean_anomaly_deg":271.2278,"bstar":8.9714e-6,"rev_number":23544,"period_min":93.84814175534,"perigee_km":461.842150496,"apogee_km":463.60161940121,"semimajor_km":6840.8588849486,"source":"CELESTRAK","updated_at":"2026-09-20T09:00:40.115299Z"}}